Location: ??
(34.7707°N, 135.6540°E)
Time: 08:02:35
(UTC+00:00)

deb Chang Zheng 4 - Pass Details

Date: 09 April 2020
Orbit: 605 x 625 km, 98.6° (Epoch: 25 May)

Event Time Altitude Azimuth Distance (km) Brightness Sun altitude
Rises 18:12:54 0° 16° (NNE) 2,899 7.7 -27.4°
Reaches altitude 10° 18:15:07 10° 20° (NNE) 1,992 6.8 -27.0°
Enters shadow 18:19:22 62° 99° (E) 700 3.9 -26.3°
